OpenBCM V1.08-5-g2f4a (Linux)

Packet Radio Mailbox

IZ3LSV

[San Dona' di P. JN]

 Login: GUEST





  
I0OJJ  > KEPS     19.04.25 02:36l 356 Lines 16922 Bytes #30 (0) @ AMSAT
BID : ORB25109.1
Read: GUEST
Subj: 2Line Orbital Elements 25109.AMSAT
Path: IZ3LSV<IK6IHL<IK7NXU<HB9ON<DK0WUE<DK0WUE<F1UBL<K7EK<VE3CGR<VE3TOK<
      LU9DCE<EA2RCF<I0OJJ
Sent: 250419/0025z @:I0OJJ.ITA.EU [Rome] obcm1.08-6-g5b69
From: I0OJJ @ I0OJJ.ITA.EU (Gustavo)
To:   KEPS @ AMSAT
X-Info: This message was generated automatically


QST de W1STR

AMSAT Orbital Elements for Amateur Satellites in TLE Format
>From Orbital Analysis Office
New England Sci-Tech STEM Education Center
Natick, MA April 19, 2025
To all radio amateurs


These element sets describe the orbits of various satellites 
in use by the amateur radio community. For details see:
www.amsat.org/keplerian-elements-formats/

A daily update of element sets is available at:
www.amsat.org/tle/daily-bulletin.txt
or without bulletin text:
www.amsat.org/tle/dailytle.txt


AO-07
1 07530U 74089B   25107.97807174 -.00000050  00000-0 -20528-4 0  9999
2 07530 101.9951 111.6796 0011973 221.1329 196.4102 12.53688259307232
UO-11
1 14781U 84021B   25108.86712902  .00002718  00000-0  29326-3 0  9990
2 14781  97.7504  76.2807 0008868 137.9902 222.1997 14.89180594214947
AO-27
1 22825U 93061C   25107.76930633  .00000251  00000-0  11294-3 0  9998
2 22825  98.7411 169.0499 0007252 266.9020  93.1333 14.30776375646168
FO-29
1 24278U 96046B   25108.55457143  .00000015  00000-0  47880-4 0  9995
2 24278  98.5811   9.2841 0350815 117.3073 246.4244 13.53244295415986
NOAA-15
1 25338U 98030A   25108.85343455  .00000309  00000-0  14471-3 0  9996
2 25338  98.5402 135.2188 0011026 145.7090 214.4804 14.26944643401028
GO-32
1 25397U 98043D   25107.93487595  .00000217  00000-0  11387-3 0  9998
2 25397  98.9673  85.9662 0001739  39.5444 320.5860 14.24296707390799
ISS
1 25544U 98067A   25108.80708381  .00015380  00000-0  27994-3 0  9992
2 25544  51.6364 241.1465 0005317  53.0043 307.1431 15.49683987505954
NO-44
1 26931U 01043C   25107.83399000  .00000456  00000-0  20196-3 0  9992
2 26931  67.0500 264.2109 0005578 270.7949  89.2513 14.31699032229557
SO-50
1 27607U 02058C   25108.84739171  .00002490  00000-0  32885-3 0  9997
2 27607  64.5558   0.2033 0050138 346.3279  13.6464 14.81443943201778
CO-55
1 27844U 03031E   25107.91017096  .00000684  00000-0  31736-3 0  9991
2 27844  98.6784 116.8602 0009252 348.0942  12.0016 14.23942041131174
CO-57
1 27848U 03031J   25107.97469925  .00000589  00000-0  27935-3 0  9993
2 27848  98.6810 116.9692 0009567   5.2276 354.9000 14.23284440130889
RS-22
1 27939U 03042A   25108.89148539  .00002255  00000-0  36588-3 0  9999
2 27939  98.3242 277.1108 0011859 168.2997 297.8734 14.72174888153225
NOAA-18
1 28654U 05018A   25108.81031971  .00000328  00000-0  19728-3 0  9998
2 28654  98.8426 188.8673 0013055 276.1490  83.8195 14.13578237 26438
CO-58
1 28895U 05043F   25107.93446710  .00003883  00000-0  64337-3 0  9991
2 28895  98.2415 251.6574 0015853 113.3543 246.9333 14.70766931 39203
CO-65
1 32785U 08021C   25107.91748858  .00009796  00000-0  71730-3 0  9993
2 32785  97.7830  78.7291 0011330  40.6415 319.5654 15.03722968921236
AAUSAT2
1 32788U 08021F   25108.48592336  .00317801  00000-0  23020-2 0  9994
2 32788  97.6011 104.4238 0008832 131.7153 228.4867 15.72467234925271
CO-66
1 32791U 08021J   25107.90400349  .00020702  00000-0  10463-2 0  9994
2 32791  97.7257  86.8386 0004450  28.3159 331.8315 15.17085679922502
RS-30
1 32953U 08025A   25108.81485827  .00000047  00000-0  26256-3 0  9991
2 32953  82.4997 259.3707 0020066 156.7145 203.4849 12.43162592767105
NOAA-19
1 33591U 09005A   25108.80834668  .00000304  00000-0  18570-3 0  9995
2 33591  99.0009 173.2142 0014493 146.9853 213.2226 14.13342890834791
SRMSAT
1 37841U 11058D   25106.74383260  .00000592  00000-0  17818-3 0  9999
2 37841  19.9707 120.3269 0011700 191.7437 324.4047 14.11412238697498
ZACUBE-1
1 39417U 13066B   25108.82928454  .00007865  00000-0  69233-3 0  9990
2 39417  97.7763  66.1542 0042977 222.8402 136.9468 14.96050736617178
Delfi-N3xt
1 39428U 13066N   25108.30996138  .00008419  00000-0  87324-3 0  9996
2 39428  97.8354  26.5807 0086385 171.3118 188.9618 14.87463156611480
GOMX-1
1 39430U 13066Q   25108.80347443  .00003141  00000-0  49421-3 0  9996
2 39430  97.6900 330.6334 0133029 358.8417   1.2461 14.67395855607817
LO-74
1 39440U 13066AA  25108.82417224  .00007549  00000-0  77160-3 0  9991
2 39440  97.8458  53.7721 0062612 352.6982   7.3316 14.89394677614931
AO-73
1 39444U 13066AE  25107.84760497  .00011967  00000-0  91645-3 0  9992
2 39444  97.7715  69.6166 0040514 202.9880 156.9532 15.01359045615678
DTUSAT-2
1 40030U 14033W   25107.86655492  .00012954  00000-0  86025-3 0  9993
2 40030  98.0516  77.1844 0007641 231.4598 128.5944 15.07337554588452
EO-80
1 40032U 14033Y   25107.88945226  .00011280  00000-0  74831-3 0  9997
2 40032  98.0407  76.9371 0009019 163.5084 196.6437 15.07405512588432
LILACSAT-2
1 40908U 15049K   25108.82969541  .00015627  00000-0  42659-3 0  9990
2 40908  97.5109 127.9655 0008914 359.6144   0.5091 15.37475004530271
IO-86
1 40931U 15052B   25038.81889873  .00001817  00000-0  15548-3 0  9993
2 40931   6.0001 108.1159 0012838 187.7041 172.2889 14.78568669506492
Horyu-4
1 41340U 16012D   25108.41623923  .00027524  00000-0  80225-3 0  9998
2 41340  30.9954 122.0894 0008689 232.6391 127.3462 15.34125818504762
Lapan A3
1 41603U 16040E   25108.88711916  .00006086  00000-0  21550-3 0  9998
2 41603  97.1393 115.5352 0013203  93.7883 266.4868 15.29395941489882
CAS-2T
1 41847U 16066G   25108.82976628  .00001527  00000-0  22703-3 0  9999
2 41847  98.4219 183.7375 0346121 335.2485  23.2432 14.43339476443551
CAS-4B
1 42759U 17034B   25108.86429509  .00067845  00000-0  92560-3 0  9996
2 42759  43.0088 268.6045 0019964 289.2852  70.5851 15.56373368434529
CAS-4A
1 42761U 17034D   25108.86846892  .00076159  00000-0  10038-2 0  9994
2 42761  43.0123 266.2007 0021315 293.5599  66.3025 15.57218420434549
TechnoSat
1 42829U 17042E   25108.53166562  .00005726  00000-0  44818-3 0  9997
2 42829  97.3930 279.7297 0015495  95.2390 265.0604 15.01303583422913
AO-91
1 43017U 17073E   25108.44273200  .00012357  00000-0  64507-3 0  9994
2 43017  97.5327 340.5433 0174855 344.7667  14.8331 15.03725432401376
S-Net D
1 43186U 18014G   25107.73778331  .00010151  00000-0  60793-3 0  9996
2 43186  97.5662  11.1949 0010769  53.8716 306.3509 15.11150619394391
S-Net B
1 43187U 18014H   25108.20603763  .00008242  00000-0  49455-3 0  9996
2 43187  97.5669  11.6273 0011341  47.9127 312.3065 15.11138823394466
S-Net A
1 43188U 18014J   25107.67213396  .00010120  00000-0  60594-3 0  9991
2 43188  97.5675  11.2425 0011265  50.2511 309.9709 15.11154299394381
S-Net C
1 43189U 18014K   25107.67858856  .00010292  00000-0  61639-3 0  9999
2 43189  97.5688  11.2536 0012581  42.6812 317.5393 15.11126980392939
Ten-Koh
1 43677U 18084G   25108.84588951  .00003878  00000-0  31468-3 0  9993
2 43677  98.0935 279.0438 0009290  94.6703 265.5580 15.00256212352482
PO-101
1 43678U 18084H   25108.82824441  .00004925  00000-0  42181-3 0  9997
2 43678  98.1013 282.9936 0010191  99.9274 260.3098 14.98020267352639
QO-100
1 43700U 18090A   25108.18173894  .00000153  00000-0  00000+0 0  9997
2 43700   0.0155 243.7533 0001801 177.7557 236.2970  1.00268730 23655
MinXSS-2
1 43758U 18099A   25107.76589880  .00023017  00000-0  95705-3 0  9992
2 43758  97.5053 173.6913 0011023 347.8045  12.2923 15.23737535348922
AO-95
1 43770U 18099N   25107.73772696  .00014878  00000-0  77482-3 0  9999
2 43770  97.4961 166.4346 0011580  44.5433 315.6728 15.16048132348544
RANGE-A
1 43773U 18099R   25107.67826017  .00008775  00000-0  56592-3 0  9990
2 43773  97.4535 157.6177 0011696  22.1282 338.0449 15.08472758348242
MOVE-II
1 43780U 18099Y   25108.14015528  .00150677  00000-0  20380-2 0  9992
2 43780  97.4690 180.5462 0002517 257.9278 102.1695 15.57207062349599
SNUSat 2
1 43782U 18099AA  25107.67277299  .00012834  00000-0  71659-3 0  9994
2 43782  97.4649 163.5446 0011207 344.3472  15.7411 15.13608412348490
SnugLite
1 43784U 18099AC  25107.71305740  .00015619  00000-0  80744-3 0  9993
2 43784  97.4459 163.0452 0002795   7.3866 352.7408 15.16350055348623
ITASat 1
1 43786U 18099AE  25108.15151493  .00009178  00000-0  53500-3 0  9991
2 43786  97.4617 163.6728 0015202  34.0109 326.2093 15.12105732348539
EAGLET 1
1 43790U 18099AJ  25107.69395257  .00008156  00000-0  52589-3 0  9993
2 43790  97.4816 163.3461 0012360  18.6924 341.4756 15.08494015348097
ESEO
1 43792U 18099AL  25108.72220649  .00002863  00000-0  22046-3 0  9996
2 43792  97.4545 158.2965 0011196 354.6626   5.4478 15.02378138348031
CSIM
1 43793U 18099AM  25108.75443310  .00136837  00000-0  18284-2 0  9999
2 43793  97.4869 183.3645 0005379 271.3853  88.6786 15.57572524349534
JO-97
1 43803U 18099AX  25107.72790442  .00018312  00000-0  86766-3 0  9996
2 43803  97.4707 167.3146 0006393 338.5035  21.5930 15.19349601348745
Suomi 100
1 43804U 18099AY  25107.72687988  .00015458  00000-0  77961-3 0  9992
2 43804  97.4771 166.7516 0011496 337.7576  22.3157 15.17169412348683
ISAT
1 43879U 18111D   25107.74050905  .00027981  00000-0  10407-2 0  9999
2 43879  97.5984  21.0503 0010724  38.2789 321.9209 15.27425657345627
UWE-4
1 43880U 18111E   25107.72190990  .00023963  00000-0  98842-3 0  9994
2 43880  97.5924  19.8583 0014182  44.3247 315.9123 15.23963517345575
Sparrow
1 43881U 18111F   25108.22078726  .00025696  00000-0  92473-3 0  9992
2 43881  97.6119  24.2234 0009987  70.5633 289.6685 15.28536894343783
Prox-1
1 44339U 19036A   25108.07304481  .00016648  00000-0  21858-2 0  9996
2 44339  23.9970  46.3835 0007284 192.8297 167.2015 14.78617410310323
SONATE
1 44400U 19038Q   25108.04874545  .00141273  00000-0  10001-2 0  9998
2 44400  97.6999 128.7330 0009286  96.3120 263.9201 15.73501451321262
Taurus 1
1 44530U 19059C   25108.83572744  .00010785  00000-0  20206-2 0  9999
2 44530  98.6005 245.8208 0010712 190.9218 169.1752 14.64944923296369
